Weather History for CWZG - October, 2012

Change the Weather History Date:

Wednesday, October 31, 2012

  Actual Average Record
Temperature  
Mean Temperature 28 °F -  
Max Temperature 31 °F - - ()
Min Temperature 24 °F - - ()
Degree Days  
Heating Degree Days 38    
Moisture  
Dew Point 23 °F    
Average Humidity 84    
Maximum Humidity 88    
Minimum Humidity 77    
Precipitation  
Precipitation 0.00 in - - ()
Sea Level Pressure  
Sea Level Pressure 30.04 in    
Wind  
Wind Speed 2 mph ()    
Max Wind Speed 4 mph    
Max Gust Speed -    
T = Trace of Precipitation, MM = Missing Value Source: Averaged Metar Reports

Daily Weather History Graph

Daily Weather History Graph

Search for Another Location

Airport or City:

Trip Planner

Search our weather history database for the weather conditions in past years. The results will help you decide how hot, cold, wet, or windy it might be!

Date:

Astronomy

Oct. 31, 2012 Rise Set
Actual Time 8:34 AM MDT 6:16 PM MDT
Civil Twilight 7:59 AM MDT 6:51 PM MDT
Nautical Twilight 7:20 AM MDT 7:30 PM MDT
Astronomical Twilight 6:41 AM MDT 8:08 PM MDT
Moon 7:17 PM MDT (10/31) 10:32 AM MDT (10/31)
Length of Visible Light 10h 52m
Length of Day
9h 42m
Full, 97% of the Moon is Illuminated
Oct 31
Full
Nov 6
Last Quarter
Nov 13
New
Nov 20
First Quarter
Nov 28
Full

Hourly Weather History & Observations

Time (MDT) Temp. Windchill Dew Point Humidity Pressure Visibility Wind Dir Wind Speed Gust Speed Precip Events Conditions
12:00 AM 26.8 °F - 23.7 °F 88% 30.07 in - ESE 1.2 mph - N/A   Unknown
1:00 AM 27.7 °F - 23.7 °F 85% 30.07 in - NNE 1.2 mph - N/A   Unknown
2:00 AM 28.2 °F - 23.7 °F 83% 30.09 in - NE 2.3 mph - N/A   Unknown
3:00 AM 27.5 °F - 23.0 °F 83% 30.09 in - ESE 1.2 mph - N/A   Unknown
4:00 AM 27.1 °F - 23.2 °F 85% 30.10 in - East 2.3 mph - N/A   Unknown
5:00 AM 26.8 °F - 22.6 °F 84% 30.11 in - ENE 2.3 mph - N/A   Unknown
6:00 AM 25.9 °F - 21.9 °F 85% 30.12 in - NE 2.3 mph - N/A   Unknown
7:00 AM 24.8 °F 20.5 °F 21.4 °F 87% 30.12 in - East 3.5 mph - N/A   Unknown
8:00 AM 24.6 °F - 21.4 °F 87% 30.10 in - East 2.3 mph - N/A   Unknown
9:00 AM 24.4 °F - 21.2 °F 87% 30.11 in - East 2.3 mph - N/A   Unknown
10:00 AM 24.6 °F 20.3 °F 21.6 °F 88% 30.10 in - ENE 3.5 mph - N/A   Unknown
11:00 AM 25.2 °F 20.9 °F 21.6 °F 86% 30.09 in - NE 3.5 mph - N/A   Unknown
12:00 PM 26.2 °F 22.1 °F 21.7 °F 83% 30.07 in - ESE 3.5 mph - N/A   Unknown
1:00 PM 27.5 °F - 23.0 °F 83% 30.05 in - ENE 2.3 mph - N/A   Unknown
2:00 PM 29.8 °F - 23.5 °F 77% 30.02 in - Calm Calm - N/A   Unknown
3:00 PM 30.7 °F - 24.8 °F 79% 29.99 in - SSE 1.2 mph - N/A   Unknown
4:00 PM 31.3 °F - 24.8 °F 77% 29.97 in - East 1.2 mph - N/A   Unknown
5:00 PM 31.5 °F - 26.2 °F 81% 29.97 in - NE 1.2 mph - N/A   Unknown
6:00 PM 30.2 °F - 25.3 °F 82% 29.96 in - ESE 1.2 mph - N/A   Unknown
7:00 PM 29.1 °F - 24.8 °F 84% 29.96 in - ESE 1.2 mph - N/A   Unknown
8:00 PM 28.2 °F - 24.1 °F 84% 29.95 in - East 2.3 mph - N/A   Unknown
9:00 PM 27.7 °F - 23.7 °F 85% 29.93 in - ENE 2.3 mph - N/A   Unknown
10:00 PM 27.3 °F 23.4 °F 23.7 °F 86% 29.93 in - East 3.5 mph - N/A   Unknown
11:00 PM 27.0 °F - 23.4 °F 86% 29.92 in - ENE 1.2 mph - N/A   Unknown